TimeMDT,TemperatureF,Dew PointF,Humidity,Sea Level PressureIn,VisibilityMPH,Wind Direction,Wind SpeedMPH,Gust SpeedMPH,PrecipitationIn,Events,Conditions,WindDirDegrees,DateUTC
12:00 AM,31.6,24.6,75,30.14,-9999.0,NE,3.5,-,N/A,,Unknown,40,2013-04-01 06:00:00
1:00 AM,28.9,23.4,80,30.15,-9999.0,NE,2.3,-,N/A,,Unknown,50,2013-04-01 07:00:00
2:00 AM,28.0,22.8,81,30.15,-9999.0,NNE,2.3,-,N/A,,Unknown,30,2013-04-01 08:00:00
3:00 AM,25.2,21.2,85,30.16,-9999.0,North,2.3,-,N/A,,Unknown,10,2013-04-01 09:00:00
4:00 AM,24.4,21.7,89,30.17,-9999.0,NNE,1.2,-,N/A,,Unknown,30,2013-04-01 10:00:00
5:00 AM,23.9,21.2,89,30.18,-9999.0,North,2.3,-,N/A,,Unknown,360,2013-04-01 11:00:00
6:00 AM,22.6,20.1,90,30.19,-9999.0,Calm,Calm,-,N/A,,Unknown,0,2013-04-01 12:00:00
7:00 AM,21.2,19.0,91,30.22,-9999.0,NW,1.2,-,N/A,,Unknown,310,2013-04-01 13:00:00
8:00 AM,21.4,19.6,93,30.22,-9999.0,Calm,Calm,-,N/A,,Unknown,0,2013-04-01 14:00:00
9:00 AM,28.0,22.5,80,30.21,-9999.0,SSW,2.3,-,0.01,,Unknown,200,2013-04-01 15:00:00
10:00 AM,31.8,23.0,70,30.19,-9999.0,SW,3.5,-,N/A,,Unknown,220,2013-04-01 16:00:00
11:00 AM,38.1,23.4,55,30.15,-9999.0,WSW,3.5,-,N/A,,Unknown,250,2013-04-01 17:00:00
12:00 PM,43.5,21.7,42,30.13,-9999.0,WSW,2.3,-,N/A,,Unknown,240,2013-04-01 18:00:00
1:00 PM,50.0,21.9,33,30.08,-9999.0,West,2.3,-,N/A,,Unknown,260,2013-04-01 19:00:00
2:00 PM,54.5,18.3,24,30.05,-9999.0,SSW,4.6,-,N/A,,Unknown,200,2013-04-01 20:00:00
3:00 PM,56.3,15.1,20,30.02,-9999.0,South,6.9,-,N/A,,Unknown,170,2013-04-01 21:00:00
4:00 PM,59.2,13.8,17,29.99,-9999.0,SW,8.1,-,N/A,,Unknown,230,2013-04-01 22:00:00
5:00 PM,59.5,15.3,18,29.98,-9999.0,SW,6.9,-,N/A,,Unknown,230,2013-04-01 23:00:00
6:00 PM,59.7,15.6,18,29.99,-9999.0,WSW,5.8,-,N/A,,Unknown,240,2013-04-02 00:00:00
7:00 PM,57.4,14.9,19,29.99,-9999.0,WSW,6.9,-,N/A,,Unknown,240,2013-04-02 01:00:00
8:00 PM,46.9,18.9,33,30.02,-9999.0,NW,3.5,-,N/A,,Unknown,310,2013-04-02 02:00:00
9:00 PM,41.2,23.7,50,30.04,-9999.0,NNE,2.3,-,N/A,,Unknown,30,2013-04-02 03:00:00
10:00 PM,39.4,24.4,55,30.05,-9999.0,NE,3.5,-,N/A,,Unknown,40,2013-04-02 04:00:00
11:00 PM,32.0,21.9,66,30.05,-9999.0,ENE,2.3,-,N/A,,Unknown,60,2013-04-02 05:00:00